{"data":{"norad_id":54809,"epoch":"2026-09-20T11:50:38.620320Z","epoch_age_seconds":93264,"freshness":"FRESH","line1":"1 54809U 22175BD  26263.49350255  .00000226  00000+0  17828-4 0  9994","line2":"2 54809  53.1593 217.4384 0001129  87.8732 272.2400 15.34391088209775","mean_motion":15.34391088,"eccentricity":0.0001129,"inclination_deg":53.1593,"raan_deg":217.4384,"arg_perigee_deg":87.8732,"mean_anomaly_deg":272.24,"bstar":1.7828e-5,"rev_number":20977,"period_min":93.848303164806,"perigee_km":461.95739482376,"apogee_km":463.5020625311,"semimajor_km":6840.8667286774,"source":"CELESTRAK","updated_at":"2026-09-21T09:00:33.131258Z"}}